W3EJE-13 Weather Reports


Display with metric or nautical units.
time (UTC)temp
F
wind
direction
speed
MPH
gust
MPH
rain 1hr
in
rain 24hr
in
rain mn
in
humidity
%
barometer
mb
20260507095157 43 252 0.0 0.0 0.00 0.00 0.00 79 1014.2
20260507094654 43 250 0.0 0.0 0.00 0.00 0.00 80 1014.1
20260507094150 44 256 0.0 0.0 0.00 0.00 0.00 81 1014.2
20260507093648 43 248 0.0 0.0 0.00 0.00 0.00 81 1014.1
20260507093147 43 245 0.0 0.0 0.00 0.00 0.00 82 1013.8
20260507092643 43 244 0.0 0.0 0.00 0.00 0.00 81 1013.8
20260507092139 44 253 0.0 0.0 0.00 0.00 0.00 81 1013.8
20260507091636 44 253 0.0 0.0 0.00 0.00 0.00 80 1013.9
20260507091132 44 264 1.0 1.0 0.00 0.00 0.00 79 1013.8
20260507090628 44 255 0.0 0.0 0.00 0.00 0.00 79 1013.8
20260507090126 44 245 0.0 0.0 0.00 0.00 0.00 80 1013.9
20260507085622 44 253 0.0 1.0 0.00 0.00 0.00 79 1013.6
20260507085119 44 252 1.0 1.0 0.00 0.00 0.00 80 1013.9
20260507084616 44 283 2.0 3.0 0.00 0.00 0.00 81 1013.7
20260507084113 44 318 3.0 3.0 0.00 0.00 0.00 81 1013.7
20260507083609 44 249 0.0 0.0 0.00 0.00 0.00 81 1014.1
20260507083107 44 259 1.0 1.0 0.00 0.00 0.00 82 1013.7
20260507082602 44 268 1.0 2.0 0.00 0.00 0.00 82 1013.8
20260507082059 44 255 2.0 2.0 0.00 0.00 0.00 81 1014.1
20260507081555 45 257 1.0 1.0 0.00 0.00 0.00 82 1013.9
20260507081052 45 262 2.0 2.0 0.00 0.00 0.00 83 1013.8
20260507080548 45 254 0.0 1.0 0.00 0.00 0.00 84 1013.7
20260507080045 45 263 1.0 2.0 0.00 0.00 0.00 83 1013.8
20260507075540 45 253 0.0 0.0 0.00 0.00 0.00 82 1013.7
20260507075036 45 259 0.0 0.0 0.00 0.00 0.00 81 1014.2
20260507074533 45 258 0.0 1.0 0.00 0.00 0.00 80 1014.2
20260507074032 45 256 0.0 0.0 0.00 0.00 0.00 79 1014.1
20260507073527 45 262 1.0 2.0 0.00 0.00 0.00 79 1013.9
20260507073024 45 259 0.0 1.0 0.00 0.00 0.00 80 1013.9
20260507072522 45 253 0.0 1.0 0.00 0.00 0.00 82 1013.8
20260507072019 45 270 1.0 1.0 0.00 0.00 0.00 82 1014.1
20260507071516 45 264 2.0 2.0 0.00 0.00 0.00 85 1014.1
20260507071012 45 251 0.0 0.0 0.00 0.00 0.00 87 1013.8
20260507070510 45 244 0.0 0.0 0.00 0.00 0.00 88 1013.9
20260507070010 46 253 0.0 0.0 0.00 0.00 0.00 89 1014.2
20260507065503 46 247 0.0 0.0 0.00 0.00 0.00 89 1013.8
20260507065000 45 254 1.0 1.0 0.00 0.00 0.00 89 1014.1
20260507064458 46 256 0.0 0.0 0.00 0.00 0.00 91 1014.1
20260507063956 46 253 0.0 0.0 0.00 0.00 0.00 91 1013.7
20260507063453 46 253 0.0 1.0 0.00 0.00 0.00 91 1013.7
20260507062950 46 269 1.0 1.0 0.00 0.00 0.00 90 1014.1
20260507062447 46 286 3.0 3.0 0.00 0.00 0.00 90 1013.6
20260507061944 46 258 1.0 2.0 0.00 0.00 0.00 91 1013.6
20260507061442 46 259 1.0 2.0 0.00 0.00 0.00 91 1013.9
20260507060940 46 265 2.0 2.0 0.00 0.00 0.00 91 1014.1
20260507060437 46 270 1.0 2.0 0.00 0.00 0.00 91 1014.2
20260507055933 46 275 1.0 1.0 0.00 0.00 0.00 92 1013.9
20260507055429 46 305 3.0 3.0 0.00 0.00 0.00 92 1014.3
20260507054926 46 251 0.0 1.0 0.00 0.00 0.00 93 1014.3
20260507054422 46 255 1.0 2.0 0.00 0.00 0.00 93 1014.3
20260507053919 46 269 2.0 2.0 0.00 0.00 0.00 93 1014.5
20260507053417 46 270 3.0 3.0 0.00 0.00 0.00 93 1014.3
20260507052915 46 276 1.0 2.0 0.00 0.00 0.00 93 1014.6
20260507052412 46 242 0.0 0.0 0.00 0.00 0.00 94 1014.5
20260507051909 46 252 0.0 0.0 0.00 0.00 0.00 95 1014.5
20260507051407 46 251 0.0 0.0 0.00 0.00 0.00 96 1014.6
20260507050903 46 251 0.0 0.0 0.00 0.00 0.00 96 1014.2
20260507050400 46 264 1.0 1.0 0.00 0.00 0.00 97 1014.4
20260507045857 46 262 1.0 1.0 0.00 0.00 0.00 97 1014.3
20260507045353 47 249 3.0 3.0 0.00 0.00 0.00 98 1014.1
20260507044851 47 267 1.0 2.0 0.00 0.00 0.00 99 1014.4
20260507044347 47 281 3.0 5.0 0.00 0.00 0.00 98 1014.4
20260507043843 47 295 2.0 3.0 0.00 0.00 0.00 98 1014.2
20260507043340 47 286 2.0 2.0 0.00 0.00 0.00 98 1014.2
20260507042836 47 255 0.0 1.0 0.00 0.00 0.00 98 1014.3
20260507042332 47 260 1.0 2.0 0.00 0.00 0.00 98 1014.1
20260507041829 47 258 0.0 1.0 0.00 0.00 0.00 98 1014.3
20260507041325 47 256 1.0 1.0 0.00 0.00 0.00 98 1014.1
20260507040823 47 256 1.0 2.0 0.00 0.00 0.00 99 1014.3
20260507040319 47 330 3.0 3.0 0.00 0.00 0.00 99 1014.3
20260507035815 47 259 3.0 3.0 0.00 0.13 0.13 99 1014.1
20260507035310 47 268 3.0 3.0 0.00 0.13 0.13 99 1014.2
20260507034808 48 287 2.0 2.0 0.00 0.13 0.13 99 1014.3
20260507034305 48 261 2.0 2.0 0.00 0.13 0.13 99 1014.4
20260507033803 48 266 1.0 1.0 0.00 0.13 0.13 99 1014.5
20260507033301 48 257 0.0 0.0 0.00 0.13 0.13 99 1014.4
20260507032757 48 257 0.0 0.0 0.00 0.13 0.13 99 1014.6
20260507032253 48 256 1.0 1.0 0.00 0.13 0.13 99 1014.5
20260507031750 48 251 0.0 0.0 0.00 0.13 0.13 98 1014.4
20260507031247 48 244 0.0 0.0 0.00 0.13 0.13 98 1014.4
20260507030744 48 254 0.0 0.0 0.00 0.13 0.13 98 1014.2
20260507030241 48 253 0.0 0.0 0.00 0.13 0.13 97 1014.4
20260507025738 48 256 1.0 1.0 0.00 0.13 0.13 97 1014.2
20260507025235 48 254 0.0 0.0 0.00 0.13 0.13 97 1014.1
20260507024733 48 263 0.0 1.0 0.00 0.13 0.13 97 1013.8
20260507024231 48 259 1.0 1.0 0.00 0.13 0.13 97 1014.1
20260507023726 48 262 0.0 0.0 0.00 0.13 0.13 97 1013.9
20260507023223 48 261 1.0 2.0 0.00 0.13 0.13 97 1014.3
20260507022720 48 256 0.0 0.0 0.00 0.13 0.13 97 1014.1
20260507022216 48 252 0.0 0.0 0.00 0.13 0.13 97 1013.7
20260507021712 48 258 1.0 1.0 0.00 0.13 0.13 97 1013.8
20260507021208 48 253 0.0 0.0 0.00 0.13 0.13 98 1014.1
20260507020707 48 254 0.0 0.0 0.00 0.13 0.13 98 1013.8
20260507020202 48 254 0.0 0.0 0.00 0.13 0.13 98 1013.8
20260507015701 48 237 0.0 0.0 0.00 0.13 0.13 98 1013.6
20260507015158 48 246 0.0 0.0 0.00 0.13 0.13 98 1013.9
20260507014654 47 256 1.0 1.0 0.00 0.13 0.13 99 1013.8
20260507014150 47 253 0.0 0.0 0.00 0.13 0.13 99 1013.8
20260507013647 47 258 1.0 1.0 0.00 0.13 0.13 99 1013.7
20260507013144 48 269 1.0 2.0 0.00 0.13 0.13 99 1013.3
20260507012642 48 255 1.0 2.0 0.00 0.13 0.13 99 1013.5
20260507012137 47 255 1.0 1.0 0.00 0.13 0.13 99 1013.6
20260507011635 48 276 2.0 2.0 0.00 0.13 0.13 99 1013.5
20260507011131 47 255 0.0 1.0 0.00 0.13 0.13 99 1013.4
20260507010626 48 253 0.0 0.0 0.00 0.13 0.13 99 1013.9
20260507010122 48 253 0.0 0.0 0.00 0.13 0.13 99 1013.3
20260507005620 48 251 0.0 0.0 0.00 0.13 0.13 99 1013.7
20260507005116 48 256 0.0 1.0 0.00 0.13 0.13 99 1013.9
20260507004613 48 260 0.0 0.0 0.00 0.13 0.13 99 1014.1
20260507004110 48 255 1.0 2.0 0.00 0.13 0.13 99 1013.7
20260507003606 48 279 5.0 5.0 0.00 0.13 0.13 99 1013.7
20260507003101 48 15 5.0 5.0 0.00 0.13 0.13 98 1013.8
20260507002558 48 255 4.0 6.0 0.00 0.13 0.13 97 1013.6
20260507002054 49 322 7.0 8.0 0.00 0.13 0.13 96 1014.4
20260507001551 49 335 8.0 10.0 0.00 0.13 0.13 96 1014.1
20260507001048 49 10 8.0 9.0 0.00 0.13 0.13 97 1014.1
20260507000544 49 301 5.0 7.0 0.00 0.13 0.13 97 1013.8
20260507000040 49 331 7.0 8.0 0.00 0.13 0.13 97 1013.6
20260506235538 50 349 7.0 8.0 0.00 0.13 0.13 97 1013.7
20260506235033 50 8 5.0 7.0 0.00 0.13 0.13 97 1013.4
20260506234531 50 267 4.0 6.0 0.00 0.13 0.13 97 1013.5
20260506234028 50 304 6.0 7.0 0.00 0.13 0.13 98 1013.1
20260506233525 50 317 7.0 9.0 0.00 0.13 0.13 98 1013.2
20260506233022 50 281 3.0 3.0 0.00 0.13 0.13 98 1013.5
20260506232517 50 291 3.0 3.0 0.00 0.13 0.13 98 1013.5
20260506232013 50 266 3.0 3.0 0.00 0.13 0.13 98 1013.3
20260506231511 50 320 6.0 7.0 0.00 0.13 0.13 99 1013.2
20260506231009 50 270 4.0 7.0 0.00 0.13 0.13 99 1013.1
20260506230504 50 242 2.0 2.0 0.00 0.13 0.13 99 1012.9
20260506230003 50 286 5.0 6.0 0.00 0.13 0.13 99 1012.7
20260506225459 50 306 3.0 3.0 0.00 0.13 0.13 99 1012.8
20260506224955 50 270 4.0 5.0 0.00 0.13 0.13 99 1012.5
20260506224452 50 353 5.0 6.0 0.00 0.13 0.13 99 1012.6
20260506223949 50 284 5.0 6.0 0.00 0.13 0.13 99 1012.7
20260506223445 50 292 4.0 5.0 0.00 0.13 0.13 99 1012.8
20260506222942 51 288 4.0 6.0 0.00 0.13 0.13 98 1012.8
20260506222439 51 266 3.0 3.0 0.00 0.13 0.13 98 1012.6
20260506221935 51 318 4.0 5.0 0.00 0.13 0.13 98 1012.6
20260506221432 51 266 2.0 2.0 0.00 0.13 0.13 98 1012.7
20260506220930 51 262 2.0 2.0 0.00 0.13 0.13 98 1012.7
20260506220425 51 341 4.0 5.0 0.00 0.13 0.13 98 1012.7
20260506215922 51 242 2.0 3.0 0.00 0.13 0.13 98 1012.7
20260506215418 51 292 5.0 8.0 0.00 0.13 0.13 98 1012.7
20260506214914 51 285 4.0 5.0 0.00 0.13 0.13 98 1012.3
20260506214411 51 333 6.0 7.0 0.00 0.13 0.13 98 1012.6
20260506213909 51 273 4.0 5.0 0.00 0.13 0.13 99 1012.3
20260506213406 51 335 5.0 6.0 0.00 0.13 0.13 99 1012.3
20260506212904 51 262 5.0 6.0 0.00 0.13 0.13 99 1011.9
20260506212359 51 313 5.0 7.0 0.00 0.13 0.13 99 1012.0
20260506211854 51 259 3.0 3.0 0.00 0.13 0.13 98 1011.8
20260506211351 51 310 4.0 5.0 0.00 0.13 0.13 98 1011.8
20260506210848 51 341 6.0 7.0 0.00 0.13 0.13 98 1011.8
20260506210345 52 6 7.0 8.0 0.00 0.13 0.13 98 1011.9
20260506205842 52 260 4.0 5.0 0.00 0.13 0.13 99 1011.9
20260506205338 52 261 5.0 6.0 0.00 0.13 0.13 98 1011.8
20260506204834 51 301 3.0 5.0 0.00 0.13 0.13 98 1011.4
20260506204332 52 305 7.0 8.0 0.00 0.13 0.13 99 1011.6
20260506203830 52 290 3.0 5.0 0.00 0.13 0.13 99 1011.5
20260506203327 52 333 4.0 5.0 0.00 0.13 0.13 99 1011.6
20260506202823 51 261 3.0 3.0 0.00 0.13 0.13 99 1011.3
20260506202321 51 274 3.0 3.0 0.00 0.13 0.13 99 1011.3
20260506201817 51 285 2.0 2.0 0.00 0.13 0.13 99 1011.2
20260506201314 51 292 5.0 6.0 0.00 0.13 0.13 99 1011.6
20260506200811 51 251 1.0 1.0 0.00 0.13 0.13 99 1011.2
20260506200307 52 264 1.0 1.0 0.00 0.13 0.13 99 1011.5
20260506195803 52 275 5.0 5.0 0.00 0.13 0.13 99 1011.4
20260506195301 52 342 5.0 7.0 0.00 0.13 0.13 99 1011.3
20260506194758 52 256 3.0 3.0 0.00 0.13 0.13 99 1011.5
20260506194254 52 346 9.0 10.0 0.00 0.13 0.13 99 1011.4
20260506193752 52 301 6.0 7.0 0.00 0.13 0.13 99 1011.4
20260506193248 53 261 6.0 7.0 0.00 0.13 0.13 99 1011.3
20260506192744 53 322 6.0 8.0 0.00 0.13 0.13 99 1011.1
20260506192242 54 318 11.0 14.0 0.00 0.13 0.13 99 1011.1
20260506191738 55 294 5.0 7.0 0.00 0.13 0.13 99 1011.0
20260506191235 55 331 5.0 7.0 0.00 0.13 0.13 99 1010.9
20260506190732 55 4 9.0 11.0 0.00 0.13 0.13 98 1010.7
20260506190228 56 343 7.0 8.0 0.00 0.13 0.13 97 1010.7
20260506185726 56 290 3.0 3.0 0.00 0.13 0.13 97 1010.7
20260506185222 56 312 6.0 7.0 0.00 0.13 0.13 96 1010.6
20260506184719 56 250 2.0 3.0 0.00 0.13 0.13 96 1010.6
20260506184217 56 319 5.0 8.0 0.00 0.13 0.13 96 1010.7
20260506183713 56 253 1.0 2.0 0.00 0.13 0.13 97 1010.7
20260506183209 56 263 1.0 2.0 0.00 0.13 0.13 97 1010.7
20260506182706 56 317 3.0 3.0 0.00 0.13 0.13 97 1010.7
20260506182204 56 247 1.0 1.0 0.00 0.13 0.13 98 1010.8
20260506181701 56 254 1.0 1.0 0.00 0.13 0.13 98 1010.6
20260506181158 56 256 3.0 3.0 0.00 0.13 0.13 98 1010.8
20260506180655 56 273 4.0 5.0 0.00 0.13 0.13 98 1010.8
20260506180151 56 250 2.0 3.0 0.00 0.13 0.13 98 1010.9
20260506175648 56 8 3.0 3.0 0.00 0.13 0.13 98 1010.9
20260506175145 56 2 7.0 8.0 0.00 0.13 0.13 98 1010.7
20260506174638 57 277 5.0 6.0 0.00 0.13 0.13 98 1010.7
20260506174134 58 341 5.0 6.0 0.00 0.13 0.13 96 1010.5
20260506173631 58 277 7.0 9.0 0.00 0.13 0.13 96 1010.5
20260506173129 59 15 7.0 9.0 0.00 0.13 0.13 95 1010.1
20260506172626 59 273 6.0 6.0 0.00 0.13 0.13 96 1010.3
20260506172121 59 328 5.0 6.0 0.00 0.13 0.13 95 1010.2
20260506171620 59 277 4.0 5.0 0.00 0.13 0.13 96 1009.9
20260506171117 59 269 5.0 7.0 0.00 0.13 0.13 96 1010.0
20260506170615 59 259 3.0 3.0 0.00 0.13 0.13 96 1010.1
20260506170111 59 285 3.0 3.0 0.00 0.13 0.13 96 1009.8
20260506165610 59 255 3.0 3.0 0.00 0.13 0.13 96 1009.7
20260506165106 59 313 8.0 9.0 0.00 0.13 0.13 96 1010.0
20260506164603 59 261 1.0 1.0 0.00 0.13 0.13 98 1009.9
20260506164100 58 234 0.0 0.0 0.00 0.13 0.13 99 1009.8
20260506163555 58 245 0.0 0.0 0.00 0.13 0.13 99 1009.8
20260506163051 58 261 0.0 1.0 0.00 0.13 0.13 99 1009.9
20260506162547 58 265 1.0 1.0 0.00 0.13 0.13 99 1009.8
20260506162039 58 262 1.0 2.0 0.00 0.13 0.13 99 1009.9
20260506161536 58 293 3.0 3.0 0.00 0.13 0.13 99 1009.8
20260506161028 59 251 1.0 2.0 0.00 0.13 0.13 99 1009.9
20260506160526 59 315 5.0 6.0 0.00 0.13 0.13 99 1009.9
20260506160023 59 269 2.0 3.0 0.00 0.13 0.13 99 1009.7
20260506155521 59 279 3.0 3.0 0.00 0.13 0.13 99 1009.6
20260506153658 59 301 7.0 9.0 0.00 0.13 0.13 99 1009.6
20260506153155 59 289 3.0 3.0 0.00 0.13 0.13 99 1009.5
20260506152652 59 260 1.0 2.0 0.00 0.13 0.13 99 1009.4
20260506152149 59 14 3.0 5.0 0.00 0.13 0.13 97 1009.5
20260506151648 59 279 7.0 8.0 0.00 0.13 0.13 97 1009.8
20260506151144 59 274 5.0 6.0 0.00 0.13 0.13 96 1009.6
20260506150641 60 296 4.0 9.0 0.00 0.13 0.13 96 1009.4
20260506150138 59 288 6.0 9.0 0.00 0.13 0.13 96 1009.1
20260506145635 59 136 3.0 6.0 0.00 0.13 0.13 98 1009.3
20260506145132 59 270 4.0 6.0 0.00 0.13 0.13 98 1009.1
20260506144630 59 253 3.0 3.0 0.00 0.13 0.13 98 1008.6
20260506144125 59 270 2.0 2.0 0.00 0.13 0.13 99 1008.9
20260506143624 59 249 2.0 2.0 0.00 0.13 0.13 99 1008.8
20260506143121 58 95 6.0 15.0 0.00 0.13 0.13 99 1008.9
20260506142620 58 332 3.0 6.0 0.00 0.13 0.13 99 1009.1
20260506142118 58 263 5.0 7.0 0.00 0.13 0.13 99 1008.8
20260506141615 58 231 1.0 2.0 0.00 0.13 0.13 99 1008.6
20260506141113 57 244 0.0 0.0 0.00 0.13 0.13 99 1009.1
20260506140610 57 264 1.0 2.0 0.00 0.13 0.13 99 1009.0
20260506140107 57 299 1.0 1.0 0.00 0.13 0.13 99 1009.1
20260506135604 57 277 1.0 1.0 0.00 0.13 0.13 99 1008.8
20260506135100 57 244 0.0 1.0 0.00 0.13 0.13 99 1008.9
20260506134557 57 198 0.0 1.0 0.00 0.13 0.13 99 1009.0
20260506134053 57 237 0.0 0.0 0.00 0.13 0.13 99 1009.0
20260506133550 57 225 0.0 1.0 0.00 0.13 0.13 99 1009.2
20260506133047 57 249 0.0 1.0 0.00 0.13 0.13 99 1009.0
20260506132544 57 253 0.0 0.0 0.00 0.13 0.13 99 1009.2
20260506132041 57 171 1.0 1.0 0.05 0.13 0.13 99 1009.2
20260506131538 57 230 1.0 1.0 0.00 0.12 0.12 99 1009.3
20260506131034 57 250 1.0 1.0 0.07 0.12 0.12 99 1009.2
20260506130532 56 237 0.0 0.0 0.12 0.12 0.12 99 1009.4
20260506130029 56 295 1.0 2.0 0.05 0.11 0.11 99 1009.3
20260506125527 56 259 1.0 2.0 0.07 0.10 0.10 99 1009.3
20260506125025 56 249 1.0 2.0 0.07 0.10 0.10 99 1009.1
20260506124523 56 259 1.0 1.0 0.00 0.09 0.09 99 1009.1
20260506124020 56 288 2.0 3.0 0.00 0.09 0.09 99 1009.4
20260506123518 56 268 3.0 5.0 0.00 0.09 0.09 99 1009.2
20260506123016 56 258 3.0 3.0 0.00 0.09 0.09 99 1009.3
20260506122512 56 255 1.0 2.0 0.00 0.09 0.09 99 1009.2
20260506122010 56 200 1.0 2.0 0.00 0.09 0.09 99 1009.2
20260506121508 56 284 2.0 2.0 0.00 0.09 0.09 99 1009.5
20260506121004 55 255 0.0 1.0 0.00 0.09 0.09 99 1009.4
20260506120502 55 222 0.0 1.0 0.00 0.09 0.09 99 1009.3
20260506115959 55 256 0.0 1.0 0.00 0.09 0.09 99 1009.4
20260506115456 55 250 0.0 0.0 0.00 0.09 0.09 99 1009.2
20260506114955 55 261 2.0 2.0 0.00 0.09 0.09 99 1009.3
20260506114452 55 292 0.0 1.0 0.00 0.09 0.09 99 1009.3
20260506113951 55 237 1.0 1.0 0.00 0.09 0.09 99 1009.2
20260506113448 55 182 0.0 1.0 0.00 0.09 0.09 99 1009.1
20260506112944 55 193 0.0 1.0 0.07 0.09 0.09 99 1009.0
20260506112442 54 231 1.0 2.0 0.00 0.08 0.08 99 1009.5
20260506111939 54 240 0.0 0.0 0.00 0.08 0.08 99 1009.6
20260506111437 54 227 0.0 1.0 0.05 0.08 0.08 99 1009.3
20260506110934 54 267 1.0 2.0 0.05 0.08 0.08 99 1009.3
20260506110432 54 250 0.0 0.0 0.00 0.07 0.07 99 1009.2
20260506105928 54 243 0.0 0.0 0.07 0.07 0.07 99 1009.4
20260506105424 54 236 0.0 1.0 0.05 0.06 0.06 99 1009.2
20260506104922 54 226 0.0 0.0 0.12 0.06 0.06 99 1009.4
20260506104420 54 226 0.0 0.0 0.07 0.05 0.05 99 1009.6
20260506103918 54 225 0.0 0.0 0.05 0.04 0.04 99 1009.3
20260506103415 54 229 0.0 0.0 0.07 0.03 0.03 99 1009.5
20260506102912 54 229 0.0 0.0 0.07 0.03 0.03 99 1009.4
20260506102410 54 229 0.0 0.0 0.00 0.02 0.02 99 1009.6
20260506101907 54 229 0.0 0.0 0.00 0.02 0.02 99 1009.7
20260506101403 54 229 0.0 0.0 0.00 0.02 0.02 99 1009.7
20260506100900 54 229 0.0 0.0 0.00 0.02 0.02 99 1009.7
20260506100359 54 229 0.0 0.0 0.05 0.02 0.02 99 1009.8
20260506095856 54 229 0.0 0.0 0.05 0.02 0.02 99 1009.9